This is the latest recevied weather packets stored in our database for station/object KC0RPY. If no packets are shown the sender has not sent any weather packets the latest 10 day(s).
| Time | Temp. | Humidity | Pressure | Rain* | Wind** | Luminosity | Snow |
|---|---|---|---|---|---|---|---|
| 1778103514 | 15° C | 38% | 1018.1 hPa | 0 mm | - | 541 W/m² | - |
| 1778103211 | 15° C | 38% | 1018.5 hPa | 0 mm | - | 544 W/m² | - |
| 1778102908 | 15.56° C | 38% | 1018.5 hPa | 0 mm | - | 544 W/m² | - |
| 1778102604 | 15.56° C | 40% | 1018.5 hPa | 0 mm | - | 586 W/m² | - |
| 1778102299 | 15° C | 38% | 1018.8 hPa | 0 mm | - | 591 W/m² | - |
| 1778101995 | 15.56° C | 38% | 1018.5 hPa | 0 mm | - | 617 W/m² | - |
| 1778101693 | 15.56° C | 39% | 1018.8 hPa | 0 mm | - | 629 W/m² | - |
| 1778101390 | 15.56° C | 41% | 1018.8 hPa | 0 mm | - | 638 W/m² | - |
| 1778101087 | 15° C | 39% | 1018.5 hPa | 0 mm | - | 647 W/m² | - |
| 1778100782 | 15° C | 38% | 1018.8 hPa | 0 mm | - | 653 W/m² | - |
| 1778100479 | 15° C | 38% | 1018.8 hPa | 0 mm | - | 668 W/m² | - |
| 1778100177 | 15° C | 41% | 1019.1 hPa | 0 mm | - | 688 W/m² | - |
| 1778099875 | 15° C | 40% | 1019.1 hPa | 0 mm | - | 696 W/m² | - |
| 1778099572 | 14.44° C | 41% | 1019.1 hPa | 0 mm | - | 704 W/m² | - |
| 1778099268 | 15° C | 40% | 1019.1 hPa | 0 mm | - | 713 W/m² | - |
| 1778098965 | 14.44° C | 42% | 1019.1 hPa | 0 mm | - | 717 W/m² | - |
| 1778098662 | 15° C | 40% | 1019.1 hPa | 0 mm | - | 711 W/m² | - |
| 1778098359 | 15° C | 40% | 1019.1 hPa | 0 mm | - | 714 W/m² | - |
| 1778098056 | 15° C | 39% | 1019.1 hPa | 0 mm | - | 728 W/m² | - |
| 1778097752 | 14.44° C | 38% | 1019.5 hPa | 0 mm | - | 739 W/m² | - |
| 1778097448 | 15° C | 39% | 1019.5 hPa | 0 mm | - | 717 W/m² | - |
| 1778097145 | 16.11° C | 37% | 1019.5 hPa | 0 mm | - | 712 W/m² | - |
| 1778096843 | 15.56° C | 39% | 1019.1 hPa | 0 mm | - | 695 W/m² | - |
| 1778096539 | 14.44° C | 41% | 1019.5 hPa | 0 mm | - | 708 W/m² | - |
| 1778096237 | 14.44° C | 39% | 1019.5 hPa | 0 mm | - | 724 W/m² | - |
* Rain latest hour (hover to see other rain measurements)
** Current wind speed in m/s (hover to see current wind gust speed)